Погода в Глухове

Россия / Тверская область     56°44′48″N   35°00′52″E
темп.,
°C
ветер,
м/с
пор.,
м/с
влажн.,
%
обл.,
%
осадки,
мм/ч
давл.,
гПа
погр.,
м
7 мая, пт
пт700:00+5юз5118976 0.0 1005804
03:00+5зюз597699 0.0 10061067
06:00+3юз4109032 0.0 1007547
09:00+8юз5106111 0.0 10091158
12:00+11юз694398 0.3 10092467
15:00+12юз484773 0.3 10092118
18:00+11ююз3761100 0.3 10091282
21:00+6ююв2788100 0.4 1009171
8 мая, сб
сб800:00+6ююв31090100 0.0 1008275
03:00+7ююв41292100 0.6 10061166
06:00+7ююв51294100 2.1 1003911
09:00+7ююв41095100 3.1 1002761
12:00+9ю3694100 0.9 1002499
15:00+8зсз3793100 3.9 1002537
18:00+6сз41091100 0.6 1004821
21:00+5сз51092100 0.9 1006861
9 мая, вс
вс900:00+4сз51190100 0.1 1008772
03:00+4з6118694 2.2 1009920
06:00+3зсз4108151 0.1 10141075
09:00+6зсз59625 0.1 10161176
12:00+10зсз5840100 0.0 10182568
15:00+12сз583295 0.0 10202769
18:00+12сз35445 0.0 10212198
21:00+6з23685 0.0 102436
10 мая, пн
пн1000:00+4юз25695 0.0 102672
03:00+3юз287686 0.0 1027140
06:00+4ююз311746 0.0 1028275
09:00+11юз485492 0.0 1029638
12:00+10ююз496596 0.0 1029549
15:00+16юз45477 0.0 10281285
18:00+16ююз35555 0.0 10281131
21:00+10ю388785 0.0 1029149
11 мая, вт
вт1100:00+8ююз258947 0.0 103084
03:00+6ююз259062 0.0 103184
06:00+7ююз2685100 0.0 1031134
09:00+14ю355727 0.0 1031513
12:00+18ю35425 0.0 10301230
15:00+19ю33415 0.0 10291461
18:00+18ююв345345 0.0 1028864
21:00+12ю237614 0.0 102834